RH
19 28 43 42 42 68 68 73 88 37 38 68 67 57 64 99 46 40 24 26 97 95 68 92 82 96 92 77 50 35 15 17 23 9 25 37 38 29 31 39 49 64 67 62
20 30 39 42 37 84 89 57 71 79 92 85 100 89 100 36 46 24 38 68 71 79 96 94 96 88 88 66 65 43 26 12 21 20 22 37 40 46 49 60 57 52 52 58
20 26 25 30 43 82 96 74 54 70 100 100 99 92 100 41 32 33 79 90 99 100 98 96 78 64 68 70 62 50 31 17 29 45 28 31 39 49 54 62 63 56 51 48
20 24 22 22 28 93 45 62 63 58 100 100 100 96 100 58 43 64 100 88 87 91 92 96 64 66 97 45 88 46 35 26 30 46 25 32 52 54 58 61 62 57 62 64
27 24 20 20 23 86 100 99 90 63 99 96 98 99 85 52 58 87 63 94 97 93 93 96 88 98 93 82 51 52 42 38 28 44 37 40 58 62 74 79 74 60 74 70
55 33 28 20 21 58 89 88 99 96 100 100 94 97 92 58 51 61 90 97 100 95 100 97 97 95 98 79 71 64 48 52 37 34 24 34 46 54 65 74 71 77 68 75
62 64 41 27 22 31 81 95 93 80 98 100 94 99 68 61 52 73 80 75 82 98 94 96 95 100 97 84 76 57 55 47 30 21 16 26 28 49 52 69 80 81 84 98
51 62 68 44 37 22 48 84 100 99 98 75 89 93 92 33 45 47 32 40 62 59 91 98 96 89 78 76 72 63 49 34 28 18 22 25 48 37 46 58 72 99 73 80
40 36 69 80 62 43 33 81 98 94 100 94 98 80 83 98 49 20 19 15 17 28 50 98 98 100 68 71 72 73 49 43 29 21 30 39 43 34 50 54 58 75 65 66
28 20 52 83 78 71 46 39 74 94 98 100 100 94 93 65 64 65 26 9 19 24 51 83 97 96 89 78 69 71 61 48 35 32 28 38 46 49 42 33 47 64 54 51
16 18 27 39 94 80 76 47 42 64 97 100 100 87 96 98 83 97 96 38 47 52 32 56 97 97 92 89 71 74 67 57 45 44 47 58 50 35 27 45 59 73 64 54
11 12 14 25 58 88 94 80 37 44 68 89 100 92 76 95 95 99 89 74 57 87 94 84 96 97 91 75 64 62 74 75 63 56 62 61 48 39 37 43 63 67 68 58
10 16 23 20 39 57 85 100 80 44 54 65 99 100 81 71 91 92 67 92 98 98 86 81 87 95 96 95 79 72 78 81 74 70 68 79 48 45 54 53 56 50 63 59
12 13 13 14 14 43 76 99 100 82 38 72 72 100 91 78 82 92 87 80 81 96 98 100 100 98 92 88 86 83 92 88 86 66 82 83 64 54 62 65 66 56 56 58
14 14 13 13 13 18 35 71 100 100 67 60 79 95 94 89 70 80 80 81 71 62 80 92 98 98 98 98 99 89 88 90 86 74 69 71 66 61 67 68 71 73 64 52
10 10 10 8 13 21 17 38 77 100 98 61 76 92 99 95 89 67 79 80 87 90 80 92 98 94 98 96 95 97 97 97 97 96 94 72 51 64 61 56 58 68 64 57
13 21 34 14 28 33 18 43 55 93 100 80 65 88 97 75 85 100 90 89 90 100 100 100 90 90 89 92 88 93 95 96 97 97 97 92 71 56 52 58 61 64 60 54
28 57 75 59 67 47 53 57 61 86 100 96 65 72 90 76 71 85 96 92 98 100 100 100 96 86 94 92 98 91 94 91 97 93 98 94 74 62 75 91 95 76 77 69
52 65 98 100 100 93 94 100 86 99 100 100 91 68 74 85 98 87 74 92 96 98 99 100 98 99 100 100 97 97 94 98 100 100 100 98 95 91 93 94 93 84 90 92
49 67 98 100 100 94 99 100 100 100 100 100 100 96 82 69 95 81 70 60 85 100 97 98 96 97 98 98 98 97 98 98 98 98 98 97 97 95 96 94 93 89 95 97
63 70 94 100 100 79 94 100 100 100 100 100 100 100 100 91 73 74 68 61 52 66 97 94 98 86 92 94 98 97 99 95 96 94 94 100 99 99 100 100 95 95 92 88
67 98 98 100 97 80 97 100 100 100 100 100 100 100 100 100 100 91 62 52 48 42 50 66 82 76 74 71 92 98 100 99 96 89 88 89 80 75 70 70 76 77 71 61
82 100 100 100 99 100 100 100 100 100 100 100 100 100 100 100 100 100 100 73 48 43 36 37 45 51 65 60 56 61 69 74 78 87 87 86 97 95 97 95 85 76 67 62
93 99 99 100 100 100 100 98 98 100 100 100 100 100 100 100 100 100 100 100 98 64 53 44 39 39 47 51 51 51 45 41 42 44 44 48 56 52 44 46 43 40 36 38
100 100 97 94 100 100 99 99 100 96 100 100 100 100 100 100 100 100 100 100 100 99 83 70 57 44 42 38 35 36 37 37 37 38 37 39 36 36 37 39 43 45 41 40
100 100 99 89 100 100 100 97 99 100 100 100 100 100 100 100 100 100 98 100 100 99 100 99 92 78 48 37 33 34 32 30 31 32 30 32 35 38 38 43 51 54 40 37
Wind_Speed
27 29 31 34 44 48 45 34 34 28 17 28 29 28 27 28 42 51 52 75 98 80 82 65 87 78 74 71 69 65 60 55 49 44 44 44 41 37 38 37 38 41 42 39
26 29 31 38 48 40 37 30 23 28 27 31 28 27 21 26 35 45 64 84 95 89 88 92 76 84 79 76 69 64 59 54 49 45 43 42 41 36 36 37 37 38 39 38
24 32 34 39 47 31 27 33 23 37 27 33 31 33 26 17 24 44 58 72 77 76 63 78 72 71 82 75 71 65 59 54 50 46 44 43 41 39 37 37 36 33 32 34
24 31 29 33 39 27 26 25 26 32 26 21 18 31 24 10 21 32 49 75 57 81 67 61 70 75 78 80 68 65 60 55 51 46 42 40 39 36 35 34 34 34 32 32
22 29 27 32 34 29 30 26 23 29 34 20 18 18 14 7 20 24 57 56 54 72 68 56 82 66 77 75 71 64 59 55 51 47 42 41 39 37 36 35 35 36 34 35
29 29 28 29 29 27 28 25 25 30 32 24 23 19 17 9 11 26 48 25 34 61 57 51 72 62 72 71 68 62 57 54 50 45 44 41 39 37 36 36 36 34 35 35
28 29 28 27 27 23 22 21 28 25 26 21 22 5 15 5 12 24 32 31 44 42 70 59 67 67 69 67 63 59 55 52 49 47 44 42 41 41 40 38 37 36 36 35
30 26 26 27 28 25 23 20 21 26 27 21 11 5 16 18 19 18 23 29 38 57 69 56 57 65 69 65 61 58 54 50 49 47 45 45 44 43 40 40 38 36 37 37
33 31 25 27 26 28 23 18 18 19 21 14 14 15 12 4 10 19 28 24 34 52 76 59 59 58 71 67 61 56 52 49 48 47 46 45 44 42 41 39 38 40 39 39
34 34 27 22 27 27 23 24 18 19 18 12 9 9 8 5 8 12 34 36 31 49 67 61 62 49 65 61 61 56 53 50 48 47 47 45 45 43 41 39 38 40 38 38
36 36 31 29 25 29 26 22 23 19 17 14 9 5 6 4 5 8 27 44 41 44 58 66 50 52 64 60 61 57 54 53 52 51 48 47 47 45 44 42 40 40 39 40
36 39 39 32 30 27 30 24 24 23 19 16 12 11 1 2 4 14 16 31 49 45 50 56 58 51 63 59 59 58 55 54 54 53 52 51 51 48 46 45 43 42 40 38
37 39 44 42 34 34 27 27 24 26 25 16 16 14 10 7 8 9 22 22 25 33 49 56 62 57 52 55 58 58 59 58 57 56 56 55 53 51 48 45 42 43 41 40
41 41 43 48 46 36 35 31 31 28 27 23 19 19 20 15 13 13 13 22 22 34 43 52 58 58 59 58 57 55 55 57 58 60 60 58 54 51 51 47 45 44 43 42
44 48 50 51 51 45 39 38 33 37 29 28 18 23 25 19 17 18 16 17 23 26 37 44 49 46 58 59 54 60 59 62 67 65 63 60 57 54 51 49 46 44 42 39
46 49 48 49 49 48 46 39 39 32 31 31 24 22 21 23 23 24 25 25 24 28 29 34 45 47 54 58 47 63 60 42 63 65 63 60 57 52 50 48 47 42 39 38
42 38 40 41 38 43 46 39 37 35 34 34 32 26 30 28 27 24 30 33 27 30 32 40 35 38 49 48 47 50 54 54 59 62 63 63 57 53 50 48 46 41 40 41
34 34 37 39 35 38 36 36 32 32 31 41 37 33 36 29 25 26 28 32 29 29 31 32 37 39 41 38 34 47 47 48 62 66 62 64 60 55 51 49 47 46 44 42
29 30 33 33 31 31 28 29 27 27 27 29 44 38 36 37 28 29 28 29 30 33 31 33 35 36 41 38 37 40 42 48 62 65 66 64 64 59 59 60 54 50 45 45
25 27 26 27 27 28 25 28 26 26 28 30 28 45 41 38 39 36 31 31 32 31 37 35 35 36 37 39 35 34 29 34 45 64 64 62 60 61 66 63 60 59 55 50
24 25 23 23 25 28 22 23 22 25 26 24 23 28 39 44 43 42 38 35 35 36 36 36 38 37 38 38 40 36 37 36 35 35 34 40 44 43 43 43 43 43 43 45
27 28 29 29 30 27 23 20 20 23 24 28 29 27 28 36 45 46 43 40 40 40 40 41 40 42 44 42 44 46 45 43 42 42 43 44 45 44 44 45 45 46 48 49
30 29 29 29 26 23 21 20 16 15 19 23 24 27 28 31 40 46 47 47 44 44 43 43 44 46 48 48 46 45 46 48 49 49 50 50 51 51 51 50 50 51 52 54
26 30 34 30 26 23 21 20 22 21 20 21 25 27 27 26 29 37 42 47 51 53 49 47 46 46 48 50 50 50 50 49 48 49 49 51 50 50 50 49 49 51 52 54
28 28 30 33 26 27 25 26 22 25 24 24 26 26 27 28 29 31 32 39 48 54 54 54 53 51 50 48 48 50 49 49 50 50 51 52 53 53 52 50 53 55 56 56
21 18 22 27 29 27 26 25 22 18 22 23 23 24 27 29 30 31 33 35 37 43 49 54 59 59 57 55 56 54 53 52 50 49 49 50 52 54 56 57 58 57 59 58
Wind_Direction
311 320 328 328 329 332 330 321 322 318 283 268 282 270 261 269 241 236 221 199 197 191 193 198 202 196 198 201 204 209 211 215 216 220 223 227 229 229 231 234 233 233 234 237
305 320 327 332 331 341 337 324 329 333 299 292 308 301 277 254 234 220 201 197 192 195 191 203 184 197 199 200 201 205 208 212 216 216 220 223 226 224 227 229 231 233 236 240
301 309 325 333 337 342 348 330 342 348 316 311 324 314 275 246 223 210 204 204 184 188 192 183 196 206 204 198 200 201 205 209 211 212 215 220 222 222 224 228 229 233 237 239
292 294 313 325 338 336 352 347 5 352 327 343 334 330 329 270 231 218 204 195 183 185 190 185 188 210 192 198 200 199 202 204 208 210 214 217 220 221 224 227 229 231 232 238
289 298 310 320 331 328 340 339 355 347 345 344 9 340 344 274 204 216 186 187 189 190 196 194 186 215 191 195 198 198 200 204 206 207 212 216 219 219 219 223 226 230 232 236
300 300 310 312 319 325 321 339 346 344 355 14 360 14 28 85 184 178 186 201 213 204 184 187 180 190 190 195 196 197 200 203 205 207 209 213 217 219 220 223 228 231 236 239
299 300 303 307 312 325 322 331 344 343 345 358 356 346 25 11 170 216 221 220 202 209 202 175 195 186 192 197 197 197 200 202 204 205 207 210 214 218 220 223 227 232 235 237
318 306 302 306 314 319 325 319 323 317 330 341 5 340 357 203 233 206 195 211 204 208 201 210 185 194 192 196 199 199 200 199 204 206 207 211 212 218 219 223 228 237 240 242
316 320 313 298 307 312 320 319 310 316 331 346 330 359 11 25 218 204 194 195 217 219 206 194 181 199 193 195 197 200 199 201 206 209 210 211 214 219 221 224 229 235 239 244
308 311 318 298 290 297 304 303 304 313 321 338 335 5 10 68 186 230 206 214 219 208 208 208 198 186 188 194 198 201 202 204 209 212 213 215 218 220 222 225 227 236 240 243
302 303 308 312 300 284 294 296 295 298 313 315 304 298 12 57 185 190 196 201 206 206 210 218 201 195 189 199 199 202 205 206 209 212 215 217 220 222 223 224 227 234 238 242
302 302 303 304 301 293 282 285 284 286 284 300 291 297 73 102 144 190 182 191 216 208 200 214 214 195 199 202 204 207 209 212 212 214 217 220 220 222 224 226 225 233 239 243
301 301 299 299 295 291 287 274 273 276 275 277 269 259 240 208 209 204 205 205 223 188 208 210 216 211 204 205 211 212 213 214 215 216 218 221 222 223 227 230 231 231 236 240
301 299 297 293 292 280 275 279 275 262 263 261 260 245 257 234 222 223 200 204 212 217 203 208 214 216 205 212 219 219 223 223 222 220 222 223 223 225 228 230 233 234 235 238
297 295 290 284 280 276 267 267 269 257 253 255 246 248 249 238 225 222 230 213 202 206 223 215 217 223 210 212 206 220 222 229 225 224 225 225 226 227 229 232 235 238 241 244
294 292 286 278 273 269 267 260 266 267 243 253 246 236 238 237 227 216 222 221 224 213 203 219 218 225 224 226 229 221 221 219 216 223 224 227 227 229 232 236 239 241 243 246
299 297 293 283 275 266 260 260 256 261 242 241 243 225 225 225 225 226 219 222 224 223 219 215 215 226 230 227 237 241 227 216 216 224 227 222 227 231 234 238 241 242 243 244
305 295 290 294 288 269 266 262 254 253 257 231 238 231 233 227 229 227 227 225 221 218 220 212 213 218 226 228 232 237 238 246 221 228 228 222 221 226 231 235 237 239 240 244
297 291 290 294 288 287 270 267 256 250 247 244 230 235 232 230 235 239 235 234 227 222 220 215 218 218 216 215 219 217 225 228 226 230 224 223 223 227 234 237 240 238 238 243
281 285 286 287 297 294 283 269 259 252 244 245 240 232 233 233 231 236 237 235 234 226 225 223 211 217 221 206 220 210 213 224 218 226 228 231 238 238 238 239 241 243 248 252
269 270 270 282 293 305 296 277 263 244 235 236 239 235 231 231 233 233 233 233 234 235 229 226 224 222 227 222 220 224 221 215 217 218 219 224 231 232 234 237 240 245 248 253
267 265 265 267 285 294 293 287 265 251 243 241 239 234 229 229 232 234 233 232 232 231 232 232 227 224 227 225 225 228 225 223 224 224 225 226 228 232 236 239 246 249 251 254
262 258 266 271 278 284 289 278 259 246 242 239 238 236 235 235 235 236 233 231 233 234 234 233 232 230 228 226 228 228 229 230 231 232 234 235 236 240 243 245 249 252 253 256
269 262 254 260 265 261 267 277 260 247 233 230 231 233 235 236 237 236 229 232 231 233 236 234 234 234 233 232 233 234 234 233 233 233 235 238 241 243 245 248 252 255 256 256
268 264 256 250 255 261 269 269 272 260 253 249 241 237 234 237 238 237 237 237 236 235 231 235 237 237 237 236 236 237 238 239 241 241 242 241 242 243 244 249 257 259 257 257
259 268 267 253 248 258 267 266 266 271 265 265 260 250 244 242 241 243 244 242 238 237 238 238 238 238 239 240 241 242 243 243 244 245 247 247 249 249 252 256 258 259 259 257